Location: Czu?�w
(50.1404°N, 18.9919°E)
Time: 03:15:29
(UTC+00:00)

SKYMED 2 - Pass Details

Date: 27 October 2020
Orbit: 621 x 623 km, 97.9° (Epoch: 24 November)

Event Time Altitude Azimuth Distance (km) Brightness Sun altitude
Rises 17:12:10 0° 12° (NNE) 2,917 6.9 -17.1°
Reaches altitude 10° 17:14:22 10° 10° (N) 2,005 6.1 -17.5°
Maximum altitude 17:18:42 72° 287° (WNW) 661 3.8 -18.1°
Drops below altitude 10° 17:23:01 10° 203° (SSW) 1,988 6.4 -18.8°
Sets 17:25:12 0° 202° (SSW) 2,890 7.2 -19.2°
